Temperature
10 10 9 9 9 9 9 9 9 9 9 9 10 10 10 10 10 10 10 10 11 11 12 12 13 13 14 14 14 14 15 15 16 16 15 14 14 14 14 14 15 15 15
9 9 8 8 8 8 8 8 8 8 8 9 9 9 9 10 10 10 10 10 10 10 11 11 12 12 13 13 14 14 14 14 15 15 14 14 13 13 13 14 14 14 15
8 8 8 8 8 8 8 7 7 7 8 8 8 9 9 9 9 9 9 10 10 10 10 10 11 11 12 13 13 13 14 14 14 14 14 14 13 13 13 13 13 13 14
8 7 7 7 7 7 7 7 7 7 7 7 8 8 8 9 9 9 9 9 9 9 10 10 10 11 11 12 12 13 13 13 13 14 14 14 13 13 12 12 12 12 12
7 7 7 7 6 6 6 6 6 6 6 7 7 7 8 8 9 9 9 9 9 9 9 9 10 10 10 11 11 12 12 13 13 13 14 13 13 12 12 12 12 12 12
6 6 6 6 6 6 6 6 6 6 6 6 6 7 7 8 9 9 9 9 9 9 9 9 9 9 10 10 10 11 12 12 13 13 13 13 13 13 12 12 12 12 11
6 6 6 6 6 6 6 6 5 5 5 5 6 6 7 7 8 8 9 9 9 9 9 9 9 10 9 9 10 10 11 11 12 12 13 13 13 13 12 12 12 12 12
6 6 6 6 6 6 5 5 5 5 5 5 5 6 6 7 7 8 8 8 8 9 9 9 9 9 9 9 9 10 10 11 11 12 12 13 13 13 13 13 12 12 11
6 6 6 5 5 5 5 5 5 5 5 5 5 5 6 6 6 7 8 7 8 8 9 9 9 9 9 9 9 9 10 10 11 11 11 12 12 12 12 12 11 11 11
6 6 5 5 5 5 5 5 5 5 5 5 5 5 6 6 6 7 7 7 8 8 8 9 9 9 9 9 9 9 9 10 11 11 11 11 12 12 12 12 12 11 11
6 6 6 5 5 5 5 5 5 5 5 5 5 5 5 6 6 6 6 7 8 8 9 9 9 9 9 9 9 9 9 10 10 11 11 11 11 11 12 12 12 12 12
6 6 6 6 6 5 5 5 5 5 5 5 5 5 5 5 6 6 6 7 7 8 8 9 9 9 9 9 9 9 9 9 10 10 10 11 11 11 11 11 11 11 11
6 6 6 6 6 6 6 6 5 5 5 5 5 5 5 5 6 6 6 7 7 7 8 8 8 8 8 8 9 9 9 9 9 10 10 11 11 11 11 11 11 11 11
6 6 6 6 6 6 6 6 6 5 5 5 5 5 5 5 6 6 6 6 7 7 7 7 8 8 8 8 8 9 9 9 9 10 10 10 11 11 11 11 10 10 10
6 6 6 6 6 6 6 6 6 6 5 5 5 5 5 5 6 6 6 6 7 7 7 7 7 8 8 8 8 9 9 9 9 10 10 10 10 11 10 10 10 10 10
6 6 6 6 7 7 7 6 6 6 6 6 6 5 5 5 6 6 6 6 6 7 7 7 8 8 8 9 9 9 9 9 9 10 10 10 10 10 10 10 10 9 9
6 6 6 7 7 7 7 7 7 6 6 6 6 6 6 6 6 6 6 6 6 7 7 7 8 8 9 9 9 9 9 9 9 9 10 10 10 10 10 9 9 9 9
7 7 7 7 7 7 7 7 7 7 6 6 6 6 6 6 6 6 6 6 6 7 7 8 8 8 9 9 9 9 9 9 9 9 9 9 9 9 9 9 9 9 9
7 7 7 7 7 7 7 7 7 7 7 6 6 6 6 6 6 6 6 6 7 7 7 8 8 8 9 9 8 9 9 9 9 9 9 9 9 9 9 9 9 9 9
7 7 7 7 8 8 8 7 7 7 7 6 6 6 6 6 6 6 6 6 7 7 7 8 8 8 8 8 8 8 8 8 8 8 9 9 9 9 9 9 9 9 9
7 7 7 7 8 8 8 7 7 7 7 6 6 6 6 6 6 6 6 6 7 7 7 8 8 8 8 8 8 8 8 8 8 8 8 9 9 9 9 9 9 9 9
7 7 7 7 8 8 8 7 7 7 7 6 6 6 6 6 6 6 6 7 7 7 7 7 8 8 8 8 8 8 8 8 8 8 8 9 9 9 9 9 9 10 10
7 7 7 8 8 8 8 8 7 7 7 7 6 6 6 6 6 6 6 6 7 7 7 7 7 7 7 7 7 7 8 8 8 8 8 8 9 9 9 9 9 10 10
7 7 7 8 8 8 8 8 8 7 7 7 7 7 6 6 6 6 6 6 7 7 7 7 7 7 7 7 7 7 8 8 8 8 8 9 9 9 9 9 10 10 10
7 7 7 8 8 8 8 8 8 8 8 8 8 7 7 7 7 7 7 7 7 7 7 7 7 7 7 7 7 7 7 8 8 8 8 9 9 9 10 10 10 10 10
7 7 7 8 8 8 8 8 8 8 8 8 8 8 8 8 8 7 7 7 7 7 7 7 7 7 7 7 7 8 8 8 8 8 9 9 9 10 10 10 10 10 10
Wind_Speed
18 17 17 17 17 17 17 17 17 16 16 16 16 15 15 14 13 11 11 10 10 10 9 10 13 13 10 11 11 10 10 9 8 6 5 6 6 6 6 7 7 8 11
18 18 18 18 18 18 18 18 17 17 17 17 17 16 16 16 15 14 13 13 12 12 11 10 10 10 14 12 10 12 11 10 9 8 7 6 6 8 8 8 7 8 10
19 19 19 19 19 19 19 18 18 18 17 17 17 17 17 17 16 16 15 14 13 13 12 11 10 10 11 11 13 12 11 11 10 9 8 7 6 8 9 8 9 8 9
18 19 19 19 19 19 19 19 19 18 18 18 18 18 18 18 18 17 16 15 14 13 12 11 11 10 10 9 10 12 11 11 11 10 9 8 8 9 9 8 7 6 7
18 19 19 19 19 19 19 19 19 18 19 18 18 18 18 18 18 18 17 17 15 14 13 13 12 12 11 8 7 8 9 10 10 10 10 9 9 10 9 8 9 8 6
19 19 19 19 19 19 20 19 19 19 19 18 18 19 19 18 16 15 16 16 15 15 14 13 12 13 13 13 11 9 8 9 10 10 11 11 12 12 11 11 11 10 5
18 19 19 19 20 20 20 20 19 19 18 18 18 18 18 18 14 13 16 17 16 15 14 13 12 12 13 12 13 13 11 10 9 9 10 11 12 13 14 15 13 12 7
18 19 19 20 20 20 20 19 19 17 16 16 16 16 16 16 14 14 14 17 17 16 15 14 13 11 12 11 11 12 12 11 11 10 11 10 10 12 15 15 13 9 10
18 19 19 20 20 20 19 19 17 15 14 14 14 14 14 13 13 14 14 14 15 17 16 16 15 14 11 11 11 13 13 11 11 11 10 8 5 7 12 13 14 13 9
18 19 19 19 19 19 19 17 15 13 13 12 12 12 12 12 12 14 14 12 14 14 14 15 14 13 11 13 12 12 13 12 10 11 10 9 9 12 16 17 17 15 11
18 18 18 18 18 18 16 14 13 12 11 10 10 9 9 9 11 14 14 12 12 13 12 12 13 16 13 13 12 11 10 9 11 11 11 10 10 11 15 14 14 15 14
18 18 18 17 16 15 14 13 12 11 9 7 7 6 5 7 9 12 15 14 11 11 11 10 9 17 15 13 12 10 7 7 9 9 10 11 11 11 12 12 11 9 7
18 18 17 16 15 14 13 12 10 8 6 5 4 4 4 5 7 11 13 13 11 10 9 3 6 13 12 11 12 10 9 9 10 10 11 11 11 12 11 10 10 9 8
17 17 16 15 14 13 10 9 9 8 6 4 3 3 3 4 6 8 10 10 11 11 10 7 9 9 9 7 9 10 10 10 10 10 10 9 10 11 12 12 12 12 10
16 16 15 13 12 11 10 8 8 7 6 6 4 3 2 2 2 1 4 7 8 10 10 9 10 10 11 11 10 10 10 11 11 10 10 10 11 12 12 13 13 13 11
14 14 12 11 11 10 9 7 1 3 2 3 4 5 2 1 2 1 1 1 1 4 7 9 10 10 11 11 11 10 10 10 10 10 11 11 12 12 12 13 14 14 14
14 13 11 11 10 10 9 8 6 1 4 1 1 1 3 1 2 3 3 4 5 7 9 10 10 10 10 10 9 9 10 9 9 10 11 11 12 13 14 15 14 14 14
14 13 12 11 10 9 8 8 7 6 3 0 3 3 2 3 4 5 7 8 6 8 10 9 9 9 9 8 8 8 8 8 9 9 10 11 13 14 15 15 15 15 15
13 11 11 11 10 9 8 7 6 6 4 3 1 4 4 5 6 7 8 7 7 8 8 8 8 8 8 7 7 7 8 7 8 9 10 11 12 13 14 15 14 17 16
11 13 13 11 10 8 8 7 6 6 5 3 2 1 2 3 4 6 7 6 6 7 7 7 6 6 6 6 7 7 7 7 8 9 9 10 11 12 15 17 16 16 14
11 11 13 11 8 8 7 7 6 5 4 3 2 2 3 3 3 4 5 6 6 6 6 6 5 6 6 6 6 7 8 7 8 9 9 10 11 12 12 14 15 15 14
10 10 10 9 9 8 8 6 6 5 4 3 2 1 2 4 3 3 4 5 5 5 5 5 5 5 5 6 6 6 7 8 9 10 10 11 12 13 13 14 15 14 14
10 10 10 9 7 6 5 5 5 5 5 3 2 2 0 2 2 2 2 3 3 4 4 4 4 4 4 4 5 6 7 9 9 11 12 12 13 13 13 14 16 15 15
10 10 9 9 8 7 6 6 5 5 4 4 3 2 1 1 1 1 1 1 2 3 3 4 4 5 6 6 6 6 7 8 10 11 14 13 13 13 14 15 15 16 16
10 9 9 9 8 7 7 6 6 5 4 4 4 3 3 3 2 2 2 3 3 3 4 4 5 6 8 9 8 8 9 9 8 10 12 12 14 14 15 15 15 15 15
10 9 8 8 8 8 7 7 7 6 5 5 5 5 5 5 4 3 3 4 4 4 5 5 7 8 9 9 11 12 10 9 8 7 10 12 14 14 15 14 17 15 16
Wind_Direction
311 310 307 304 301 298 292 287 284 280 277 272 267 264 260 254 247 242 246 247 248 250 253 255 246 239 232 223 220 219 220 222 223 195 163 151 150 142 127 116 108 101 93
311 308 305 304 301 298 295 293 289 283 277 272 266 261 257 253 247 242 241 243 242 244 243 244 251 245 235 230 222 219 217 215 219 210 181 171 161 150 136 125 113 100 98
311 309 306 304 302 300 298 295 291 286 280 273 267 260 254 251 248 242 238 238 239 241 241 239 239 242 241 232 226 220 216 210 214 213 198 173 157 148 137 125 114 108 103
312 309 306 305 303 301 299 296 291 286 280 273 266 259 253 248 245 241 237 234 234 236 237 237 235 234 238 239 233 228 222 214 206 211 201 181 164 156 151 144 131 125 117
311 308 307 307 304 302 299 296 292 287 281 274 266 258 252 246 241 237 235 232 230 231 229 229 230 228 232 238 242 235 224 218 209 207 203 189 176 168 169 162 144 129 112
310 310 309 308 306 303 301 297 293 288 283 276 267 259 252 246 234 221 229 235 230 228 228 225 222 215 220 223 236 247 244 228 217 212 208 200 190 181 173 162 153 150 143
311 310 310 309 307 305 302 299 295 291 286 278 268 258 251 247 235 212 215 230 231 228 226 223 225 214 201 216 216 222 237 243 242 235 225 214 198 186 175 172 174 172 151
311 312 313 311 310 308 303 300 296 292 285 278 268 259 251 243 224 210 208 225 231 228 224 222 224 224 212 211 216 214 217 220 225 232 238 235 220 193 182 178 164 131 117
313 316 316 313 311 309 306 305 302 296 287 280 270 258 248 239 218 203 203 224 225 226 224 221 220 221 200 195 221 222 216 214 216 228 245 254 250 195 175 162 152 147 142
317 316 313 310 309 310 309 308 306 300 290 284 272 260 246 234 210 196 202 224 223 221 219 219 215 223 190 185 220 227 223 213 203 207 217 226 216 190 173 174 170 166 152
315 312 310 311 310 310 311 310 308 304 296 286 276 261 242 227 201 192 200 222 224 221 219 215 210 187 191 193 220 232 230 219 202 203 204 205 205 194 186 184 182 176 169
314 312 311 313 313 314 314 312 311 305 297 289 279 261 234 216 207 193 196 219 242 229 225 222 199 164 183 196 215 230 224 217 214 205 205 199 196 191 186 182 176 172 163
314 313 313 314 315 316 317 318 316 310 302 292 280 257 229 213 198 187 194 206 220 233 234 223 143 154 177 201 218 217 214 219 216 209 207 201 192 181 170 159 139 121 111
314 314 315 316 316 319 320 321 324 324 321 310 289 261 228 213 201 194 198 200 202 219 227 183 160 169 209 227 199 204 218 221 216 212 205 195 179 168 163 155 148 140 133
314 315 317 318 316 316 320 327 329 336 345 320 317 306 264 221 177 183 220 208 208 206 204 205 207 201 205 210 215 213 211 211 212 212 199 186 174 166 161 157 154 153 152
315 317 318 317 317 317 322 326 290 289 343 316 307 308 311 88 122 170 238 264 208 181 205 210 211 209 210 210 210 209 210 211 208 203 193 182 173 165 159 157 160 163 160
314 314 313 312 314 318 322 325 332 294 187 179 313 297 286 310 186 190 190 183 180 186 214 220 214 212 211 211 212 211 210 205 200 196 189 180 171 164 160 160 163 165 163
316 313 310 310 313 317 319 323 327 332 343 340 153 136 159 180 184 178 169 174 185 207 222 220 217 214 212 212 212 211 208 198 192 190 185 178 170 165 163 163 166 167 164
318 316 318 315 314 317 321 327 334 339 346 346 30 131 148 160 170 181 193 217 208 206 216 218 217 214 209 209 209 207 201 195 187 183 181 172 166 165 164 164 164 164 164
318 311 311 313 317 326 330 339 345 346 349 347 356 19 162 184 182 181 207 225 228 217 213 218 217 215 209 207 201 199 192 184 178 177 175 166 163 165 163 163 163 165 167
320 319 314 314 322 331 337 345 348 348 354 351 355 23 334 258 227 212 216 222 227 223 215 213 209 207 206 203 194 188 182 178 175 172 169 163 161 161 161 162 162 164 166
322 324 326 328 330 335 340 346 346 351 0 7 17 117 235 263 256 242 236 232 225 222 213 207 209 203 194 189 181 176 175 174 169 164 161 160 159 158 160 160 160 162 165
327 328 329 330 331 335 341 1 3 3 4 15 23 25 269 267 270 244 230 229 218 208 199 197 202 192 180 172 169 170 171 170 164 158 155 153 152 155 158 157 158 161 167
334 334 335 337 343 352 5 12 16 14 8 14 23 24 18 30 50 86 137 160 175 174 178 184 178 167 162 161 158 156 154 154 154 154 151 152 153 153 153 156 161 164 168
340 340 341 343 350 359 6 13 17 21 28 22 31 47 64 73 78 86 105 123 137 143 149 156 154 153 154 151 146 138 126 128 143 148 153 154 153 153 154 158 161 164 167
343 343 346 348 350 357 5 12 18 28 38 34 39 47 61 71 74 81 94 104 112 123 132 138 139 140 144 143 132 125 126 130 140 157 158 152 152 154 157 160 160 164 165
Height
1479 1475 1471 1468 1465 1462 1460 1457 1455 1453 1452 1451 1450 1450 1450 1449 1449 1449 1449 1449 1449 1450 1451 1453 1456 1460 1464 1467 1470 1472 1475 1477 1479 1481 1482 1483 1483 1485 1486 1488 1490 1492 1494
1473 1469 1464 1461 1457 1454 1452 1449 1447 1445 1443 1442 1442 1441 1442 1442 1443 1443 1443 1443 1444 1444 1445 1446 1448 1452 1456 1460 1463 1466 1469 1472 1475 1477 1479 1480 1481 1482 1484 1486 1488 1490 1492
1467 1462 1457 1453 1450 1446 1443 1440 1438 1436 1434 1433 1432 1432 1433 1434 1435 1436 1437 1437 1438 1438 1439 1441 1442 1444 1448 1452 1456 1459 1463 1466 1469 1473 1475 1476 1478 1480 1482 1484 1486 1488 1490
1460 1455 1451 1446 1442 1438 1435 1431 1429 1426 1424 1423 1422 1423 1423 1424 1426 1428 1429 1431 1432 1432 1433 1434 1436 1438 1440 1443 1448 1452 1456 1460 1463 1467 1470 1473 1474 1477 1479 1481 1484 1487 1489
1454 1449 1444 1440 1435 1431 1427 1423 1420 1417 1414 1413 1412 1412 1413 1414 1416 1418 1421 1423 1425 1427 1428 1429 1430 1432 1433 1436 1440 1444 1449 1453 1457 1461 1465 1468 1470 1472 1476 1479 1481 1484 1487
1448 1443 1438 1433 1428 1423 1419 1415 1411 1407 1405 1403 1401 1401 1402 1404 1406 1409 1412 1415 1418 1420 1422 1424 1425 1426 1428 1430 1433 1437 1442 1446 1450 1455 1459 1462 1465 1468 1472 1475 1478 1481 1485
1443 1437 1432 1427 1421 1416 1411 1406 1402 1398 1395 1392 1391 1390 1391 1393 1396 1399 1403 1407 1410 1413 1415 1418 1420 1422 1423 1425 1428 1431 1434 1439 1444 1449 1453 1457 1461 1464 1467 1471 1475 1479 1482
1438 1432 1427 1421 1415 1409 1403 1398 1393 1388 1385 1382 1380 1380 1381 1383 1386 1390 1394 1398 1402 1405 1409 1411 1414 1417 1418 1420 1423 1425 1428 1432 1436 1442 1447 1452 1457 1460 1463 1467 1472 1475 1480
1433 1427 1421 1415 1408 1402 1396 1390 1385 1380 1376 1373 1372 1371 1372 1374 1378 1382 1386 1390 1394 1398 1402 1405 1408 1411 1413 1415 1418 1420 1423 1425 1430 1435 1441 1446 1450 1455 1459 1463 1467 1471 1475
1428 1422 1415 1409 1403 1396 1390 1384 1378 1373 1369 1367 1365 1364 1364 1366 1370 1374 1379 1384 1387 1391 1395 1398 1402 1405 1408 1410 1413 1415 1417 1420 1424 1429 1434 1439 1444 1449 1454 1458 1462 1466 1470
1423 1417 1410 1404 1398 1392 1385 1379 1374 1369 1364 1361 1360 1359 1359 1361 1364 1368 1373 1377 1381 1385 1389 1392 1395 1398 1402 1405 1408 1410 1413 1416 1420 1424 1428 1433 1439 1444 1448 1453 1458 1462 1466
1418 1412 1406 1400 1394 1388 1382 1376 1370 1365 1361 1358 1356 1355 1355 1357 1360 1363 1368 1372 1376 1380 1384 1387 1390 1393 1396 1400 1403 1405 1408 1411 1415 1419 1423 1427 1432 1437 1443 1448 1453 1458 1463
1414 1408 1402 1396 1390 1384 1379 1373 1367 1363 1359 1357 1355 1354 1354 1355 1357 1360 1364 1368 1372 1376 1380 1383 1386 1388 1392 1395 1398 1400 1403 1406 1409 1413 1416 1421 1426 1432 1437 1443 1448 1453 1458
1410 1404 1398 1392 1387 1381 1376 1371 1366 1362 1359 1356 1354 1353 1353 1354 1355 1358 1361 1364 1368 1371 1375 1378 1381 1384 1388 1391 1393 1395 1398 1401 1404 1407 1411 1416 1421 1426 1431 1437 1443 1448 1454
1406 1401 1395 1390 1384 1379 1374 1370 1365 1362 1358 1356 1354 1353 1353 1353 1354 1356 1359 1362 1365 1369 1372 1375 1378 1381 1383 1386 1389 1391 1393 1396 1399 1402 1406 1411 1415 1420 1426 1432 1438 1444 1450
1403 1398 1392 1387 1382 1377 1373 1368 1364 1361 1358 1355 1354 1353 1352 1353 1354 1355 1357 1360 1363 1365 1369 1371 1374 1376 1379 1381 1384 1386 1388 1391 1394 1397 1401 1405 1410 1415 1421 1428 1434 1440 1447
1401 1395 1390 1385 1380 1376 1371 1367 1363 1360 1357 1355 1353 1352 1352 1353 1353 1355 1356 1358 1360 1363 1366 1368 1370 1372 1375 1377 1379 1381 1383 1386 1389 1392 1396 1401 1406 1411 1417 1423 1430 1437 1445
1398 1393 1388 1383 1379 1374 1370 1366 1363 1359 1357 1355 1353 1352 1352 1352 1353 1353 1355 1357 1358 1360 1362 1364 1366 1368 1370 1373 1375 1377 1379 1381 1384 1387 1391 1396 1401 1407 1413 1420 1427 1434 1442
1395 1390 1386 1381 1377 1373 1369 1365 1362 1359 1356 1354 1353 1351 1351 1351 1352 1352 1353 1355 1357 1358 1359 1361 1363 1365 1367 1369 1371 1373 1375 1377 1380 1383 1388 1392 1397 1404 1410 1417 1425 1432 1439
1393 1388 1384 1380 1376 1372 1368 1365 1362 1359 1356 1354 1352 1351 1351 1351 1351 1351 1352 1353 1354 1356 1357 1359 1361 1362 1364 1366 1367 1369 1372 1374 1377 1381 1385 1390 1396 1402 1408 1415 1422 1429 1437
1391 1387 1383 1379 1375 1371 1368 1364 1361 1359 1356 1353 1352 1350 1350 1350 1350 1350 1350 1351 1352 1353 1355 1357 1358 1360 1361 1363 1365 1367 1369 1372 1375 1379 1383 1388 1394 1401 1407 1414 1421 1428 1435
1390 1386 1382 1378 1375 1371 1368 1365 1362 1359 1356 1354 1352 1350 1349 1348 1348 1349 1349 1349 1350 1351 1353 1355 1356 1358 1359 1361 1363 1365 1367 1370 1374 1378 1382 1388 1394 1400 1406 1413 1420 1427 1434
1390 1386 1382 1378 1375 1372 1369 1366 1363 1359 1357 1355 1353 1351 1349 1348 1347 1347 1347 1347 1348 1349 1351 1353 1354 1356 1358 1360 1362 1364 1367 1369 1373 1377 1382 1387 1393 1400 1406 1413 1420 1426 1433
1390 1386 1383 1379 1376 1374 1371 1368 1364 1361 1359 1356 1354 1352 1350 1349 1348 1347 1347 1347 1347 1349 1350 1352 1354 1356 1357 1359 1361 1364 1367 1370 1374 1378 1383 1389 1395 1401 1407 1414 1420 1427 1433
1391 1387 1384 1381 1378 1375 1372 1370 1367 1364 1362 1360 1357 1355 1353 1352 1350 1349 1349 1349 1349 1350 1351 1353 1355 1356 1358 1360 1363 1366 1369 1372 1377 1382 1387 1392 1398 1404 1410 1416 1422 1428 1433
1391 1388 1385 1382 1380 1377 1375 1372 1370 1367 1366 1364 1361 1359 1358 1356 1355 1354 1353 1352 1353 1354 1355 1356 1358 1360 1361 1364 1366 1369 1372 1376 1381 1386 1391 1396 1401 1406 1412 1417 1423 1428 1433